STARLINK-31130

decayed
NORAD ID: 58667 Int'l Des: 2023-211 Owner: SPXS Country: US Constellation: starlink
LEOCIRCULAR

关于 STARLINK-31130

正在加载描述...

高度历史

Altitude vs Time

uPlot chart will show altitude changes over time

两行轨道根数

1 58667U 23211A 24004.46080941 .13567732 91174-5 23791-2 0 9998
2 58667 42.9951 255.2184 0004756 247.8892 285.8895 16.31766205 2085
Epoch: Jan 4, 2024 • Age: 14965 hours

当前状态

Position data unavailable
发射日期 Dec 29, 2023
运行时间 1.7 years
衰减日期 Jan 4, 2024
类型 internet

技术详情

分类 Payload
质量 730.00 kg
干质量 700.00 kg
总质量 730.00 kg
长度 0.30 m
直径 4.10 m
跨度 29.00 m
形状 Box + pan
制造商 SPXS
平台类型 Starlink V2M
阶段状态 Unknown Transfer Status
所有者/国家 SPXS/US

大型星座

Loading constellations...